A/2020 M4

Japanese version
Home page
Updated on July 18, 2021

---------------------------------------------------------------------

* Profile

Discovery Date June 17, 2020
Magnitude 21.98 mag
Discoverer Pan-STARRS 2 (Haleakala)

* Orbital Elements

Epoch 2021 July 5.0 TT = JDT 2459400.5
T 2020 Nov. 23.93182 TT                                 Rudenko
q   5.9525587            (2000.0)            P               Q
z  +0.0001136      Peri.  104.64606     -0.42733810     -0.90160231
 +/-0.0000060      Node   348.62493     -0.90348116     +0.42314804
e   0.9993235      Incl.  160.12640     -0.03322568     +0.08977196
H   14.5
From 70 observations 2018 Aug. 9-2021 June 12, mean residual 0".3.

* Magnitudes Graph

        H = 14.0  G = 0.15

---------------------------------------------------------------------

The orbital elements are published on M.P.E.C. 2021-N06.
The magnitudes graphs are made with Comet for Windows.

---------------------------------------------------------------------

Copyright(C) Seiichi Yoshida (comet@aerith.net). All rights reserved.